Hourly Data Report for October 09, 2016

All times are specified in Local Standard Time (LST). Add 1 hour to adjust for Daylight Saving Time where and when it is observed.

GRISE FIORD CLIMATE
NUNAVUT

76°25'22.040" N
82°54'08.020" W
44.50 m
2402351
71971
NGC

Download Data

Hourly Data (October 2016)
Hourly Data Report for October 9, 2016
Temp Definition
°C
Dew Point Temp Definition
°C
Rel Hum Definition
%
Wind Dir Definition
10's deg

Wind Spd Definition
km/h
Visibility Definition
km
Stn Press Definition
kPa
Hmdx Definition


Wind Chill Definition


Weather Definition


TIME
00:00 -6.3 -9.4 79 4 10   100.36   -11 LegendNANA
01:00 -6.4 -9.6 78 5 10   100.35   -11 LegendNANA
02:00 -6.1 -9.1 79 5 10   100.36   -11 LegendNANA
03:00 -6.5 -9.4 80 6 5   100.36   -9 LegendNANA
04:00 -6.8 -9.2 82 6 6   100.37   -10 LegendNANA
05:00 -8.4 -11.7 77 6 4   100.38   -11 LegendNANA
06:00 -8.4 -10.2 87 6 4   100.39   -11 LegendNANA
07:00 -8.7 -11.5 80 9 3   100.40   -10 LegendNANA
08:00 -9.9 -11.8 86 8 4   100.40   -12 LegendNANA
09:00 -8.6 -10.4 87 9 7   100.41   -12 LegendNANA
10:00 -9.7 -11.7 86 13 9   100.41   -15 LegendNANA
11:00 -8.7 -12.8 72 11 5   100.43   -11 LegendNANA
12:00 -8.7 -11.9 77 13 6   100.43   -12 LegendNANA
13:00 -8.1 -10.4 83 13 5   100.43   -11 LegendNANA
14:00 -7.8 -10.1 84 13 5   100.44   -10 LegendNANA
15:00 -7.3 -9.4 85 12 3   100.47   -9 LegendNANA
16:00 -7.8 -9.6 87 13 5   100.47   -10 LegendNANA
17:00 -8.4 -10.2 87 12 6   100.46   -12 LegendNANA
18:00 -8.3 -10.3 86 13 6   100.48   -12 LegendNANA
19:00 -8.5 -10.5 86 12 10   100.49   -13 LegendNANA
20:00 -10.0 -11.8 86 10 7   100.49   -14 LegendNANA
21:00 -11.4 -13.8 82 10 8   100.49   -16 LegendNANA
22:00 -8.7 -10.1 89 11 2   100.47   -10 LegendNANA
23:00 -11.6 -14.1 81 10 6   100.44   -15 LegendNANA

Notes on Data Quality.

Legend

  • E = Estimated
  • M = Missing
  • NA = Not Available
  • ‡ = Partner data that is not subject to review by the National Climate Archives
Date modified: